User: anonymous   Login
Location: Unspecified
(0.0000°N, 0.0000°E)
Time: 08:01:35
(UTC+00:00)
Language:

GLOBAL-2 - Orbit

View from above orbital plane
View from above orbital plane
View from above satellite
View from above satellite

Ground track
Ground track

The orbit data is extracted from the following two-line orbital elements,

1 43812U 18099BG  20224.07778196  .00000512  00000-0  51322-4 0  9995
2 43812  97.6997 294.8475 0013807  16.4660 343.7007 14.95536560 91691
Epoch (UTC): 11 August 2020 01:52:00
Eccentricity: 0.0013807
inclination: 97.6997°
perigee height: 571 km
apogee height: 590 km
right ascension of ascending node: 294.8475°
argument of perigee: 16.4660°
revolutions per day: 14.95536560
mean anomaly at epoch: 343.7007°
orbit number at epoch: 9169

The dashed part of the orbit path shows where the satellite is in the earth's shadow,  

DLR